Weather History for KDYR - March, 2012

Change the Weather History Date:

Thursday, March 8, 2012

  Actual Average Record
Temperature  
Mean Temperature 54 °F -  
Max Temperature 68 °F 52 °F 78 °F (2009)
Min Temperature 41 °F 36 °F 24 °F (2008)
Degree Days  
Heating Degree Days 10    
Growing Degree Days 4 (Base 50)    
Moisture  
Dew Point 48 °F    
Average Humidity 71    
Maximum Humidity 77    
Minimum Humidity 56    
Precipitation  
Precipitation 2.47 in - - ()
Sea Level Pressure  
Sea Level Pressure 30.12 in    
Wind  
Wind Speed 12 mph (SE)    
Max Wind Speed 22 mph    
Max Gust Speed 34 mph    
Visibility 9 miles    
Events Thunderstorm    
Averages and records for this station are not official NWS values.
T = Trace of Precipitation, MM = Missing Value Source: NWS Daily Summary

Daily Weather History Graph

Daily Weather History Graph

Search for Another Location

Airport or City:

Trip Planner

Search our weather history database for the weather conditions in past years. The results will help you decide how hot, cold, wet, or windy it might be!

Date:

Astronomy

Mar. 08, 2012 Rise Set
Actual Time 6:17 AM CST 5:59 PM CST
Civil Twilight 5:52 AM CST 6:25 PM CST
Nautical Twilight 5:22 AM CST 6:54 PM CST
Astronomical Twilight 4:52 AM CST 7:24 PM CST
Moon 6:43 PM CST (3/8) 6:03 AM CST (3/8)
Length of Visible Light 12h 33m
Length of Day
11h 41m
Full, 100% of the Moon is Illuminated
Mar 8
Full
Mar 14
Last Quarter
Mar 22
New
Mar 30
First Quarter
Apr 6
Full

Hourly Weather History & Observations

Time (CST) Temp. Windchill Dew Point Humidity Pressure Visibility Wind Dir Wind Speed Gust Speed Precip Events Conditions
12:15 AM 68.0 °F - 51.8 °F 56% 30.11 in 10.0 mi South 13.8 mph 26.5 mph N/A   Overcast
12:35 AM 66.2 °F - 51.8 °F 60% 30.11 in 10.0 mi South 16.1 mph 27.6 mph N/A   Overcast
12:55 AM 66.2 °F - 51.8 °F 60% 30.12 in 10.0 mi South 15.0 mph 23.0 mph N/A   Overcast
1:15 AM 66.2 °F - 51.8 °F 60% 30.11 in 10.0 mi South 13.8 mph 24.2 mph N/A   Overcast
1:35 AM 66.2 °F - 51.8 °F 60% 30.10 in 10.0 mi South 12.7 mph 20.7 mph N/A   Mostly Cloudy
1:55 AM 64.4 °F - 51.8 °F 64% 30.09 in 10.0 mi South 15.0 mph 20.7 mph N/A   Mostly Cloudy
2:35 AM 66.2 °F - 51.8 °F 60% 30.09 in 10.0 mi South 9.2 mph 19.6 mph N/A   Mostly Cloudy
2:55 AM 66.2 °F - 51.8 °F 60% 30.08 in 10.0 mi South 10.4 mph 17.3 mph N/A   Overcast
3:15 AM 66.2 °F - 51.8 °F 60% 30.07 in 10.0 mi South 12.7 mph 17.3 mph N/A   Overcast
3:35 AM 64.4 °F - 51.8 °F 64% 30.06 in 10.0 mi South 13.8 mph 20.7 mph N/A   Mostly Cloudy
3:55 AM 64.4 °F - 51.8 °F 64% 30.05 in 10.0 mi South 13.8 mph 20.7 mph N/A   Mostly Cloudy
4:15 AM 62.6 °F - 51.8 °F 68% 30.05 in 10.0 mi South 11.5 mph 18.4 mph N/A   Overcast
4:35 AM 62.6 °F - 51.8 °F 68% 30.06 in 10.0 mi South 6.9 mph - N/A   Overcast
4:55 AM 62.6 °F - 51.8 °F 68% 30.07 in 9.0 mi SSE 4.6 mph - 0.05 in Thunderstorm Overcast
5:15 AM 60.8 °F - 51.8 °F 72% 30.10 in 3.0 mi North 5.8 mph - 0.19 in Thunderstorm Thunderstorm
5:35 AM 60.8 °F - 51.8 °F 72% 30.10 in 5.0 mi East 3.5 mph - 0.25 in Thunderstorm Overcast
5:55 AM 60.8 °F - 51.8 °F 72% 30.08 in 5.0 mi ESE 8.1 mph - 0.35 in   Overcast
6:15 AM 59.0 °F - 51.8 °F 77% 30.06 in 10.0 mi ESE 10.4 mph - N/A   Overcast
6:35 AM 59.0 °F - 51.8 °F 77% 30.04 in 10.0 mi SE 12.7 mph - N/A   Overcast
6:55 AM 59.0 °F - 51.8 °F 77% 30.04 in 8.0 mi SSE 10.4 mph 16.1 mph N/A   Overcast
7:15 AM 60.8 °F - 51.8 °F 72% 30.04 in 7.0 mi SSE 11.5 mph 18.4 mph 0.01 in   Overcast
7:35 AM 60.8 °F - 51.8 °F 72% 30.04 in 7.0 mi SSE 8.1 mph 19.6 mph 0.04 in   Overcast
7:55 AM 60.8 °F - 53.6 °F 77% 30.03 in 8.0 mi South 9.2 mph - 0.06 in   Overcast
8:15 AM 60.8 °F - 53.6 °F 77% 30.07 in 5.0 mi NW 10.4 mph - 0.11 in   Overcast
8:35 AM 60.8 °F - 53.6 °F 77% 30.05 in 5.0 mi West 9.2 mph 18.4 mph 0.42 in   Overcast
8:55 AM 62.6 °F - 55.4 °F 77% 30.07 in 5.0 mi WSW 10.4 mph 16.1 mph 0.42 in   Overcast
9:15 AM 62.6 °F - 55.4 °F 77% 30.06 in 10.0 mi South 8.1 mph - 0.01 in   Mostly Cloudy
9:35 AM 62.6 °F - 55.4 °F 77% 30.06 in 10.0 mi SSW 8.1 mph - 0.01 in   Overcast
9:55 AM 64.4 °F - 55.4 °F 73% 30.05 in 10.0 mi SSW 9.2 mph - 0.01 in   Overcast
10:15 AM 64.4 °F - 55.4 °F 73% 30.05 in 10.0 mi SSW 11.5 mph 20.7 mph N/A   Overcast
10:35 AM 64.4 °F - 55.4 °F 73% 30.05 in 10.0 mi SSW 9.2 mph 18.4 mph N/A   Overcast
10:55 AM 64.4 °F - 55.4 °F 73% 30.06 in 10.0 mi SW 8.1 mph - N/A   Overcast
11:15 AM 64.4 °F - 55.4 °F 73% 30.05 in 10.0 mi North 8.1 mph - N/A   Overcast
11:35 AM 62.6 °F - 55.4 °F 77% 30.05 in 8.0 mi North 9.2 mph - N/A Thunderstorm Overcast
11:55 AM 55.4 °F - 48.2 °F 77% 30.08 in 3.0 mi North 21.9 mph 33.4 mph 0.28 in Thunderstorm Thunderstorm
12:15 PM 53.6 °F - 46.4 °F 77% 30.11 in 4.0 mi North 19.6 mph 28.8 mph 0.26 in Thunderstorm Thunderstorm
12:35 PM 51.8 °F - 44.6 °F 76% 30.12 in 10.0 mi North 18.4 mph 29.9 mph 0.36 in Thunderstorm Mostly Cloudy
12:55 PM 51.8 °F - 44.6 °F 76% 30.13 in 9.0 mi North 13.8 mph 25.3 mph 0.49 in Thunderstorm Thunderstorm
1:15 PM 51.8 °F - 42.8 °F 71% 30.14 in 10.0 mi North 11.5 mph 18.4 mph 0.07 in Thunderstorm Overcast
1:35 PM 50.0 °F - 42.8 °F 76% 30.15 in 10.0 mi North 15.0 mph 24.2 mph 0.13 in Thunderstorm Thunderstorm
1:55 PM 48.2 °F - 41.0 °F 76% 30.16 in 10.0 mi North 18.4 mph 34.5 mph 0.18 in   Overcast
2:15 PM 48.2 °F - 39.2 °F 71% 30.13 in 10.0 mi North 19.6 mph 24.2 mph 0.07 in   Overcast
2:35 PM 46.4 °F 41.5 °F 39.2 °F 76% 30.18 in 10.0 mi North 10.4 mph 20.7 mph 0.11 in   Overcast
2:55 PM 46.4 °F 40.4 °F 39.2 °F 76% 30.21 in 10.0 mi NNW 13.8 mph 19.6 mph 0.21 in   Overcast
3:15 PM 44.6 °F 37.2 °F 37.4 °F 76% 30.20 in 10.0 mi North 17.3 mph 25.3 mph 0.10 in Thunderstorm Overcast
3:35 PM 44.6 °F 37.8 °F 37.4 °F 76% 30.22 in 10.0 mi North 15.0 mph 19.6 mph 0.16 in   Overcast
3:55 PM 44.6 °F 38.8 °F 35.6 °F 71% 30.23 in 10.0 mi North 11.5 mph 24.2 mph 0.18 in   Overcast
4:15 PM 42.8 °F 33.8 °F 33.8 °F 70% 30.26 in 10.0 mi NNE 21.9 mph 26.5 mph 0.02 in   Overcast
4:35 PM 42.8 °F 36.2 °F 33.8 °F 70% 30.33 in 10.0 mi North 12.7 mph 23.0 mph 0.07 in   Overcast
4:55 PM 41.0 °F 33.5 °F 33.8 °F 76% 30.32 in 10.0 mi North 13.8 mph 21.9 mph 0.12 in   Overcast
5:15 PM 41.0 °F 33.5 °F 33.8 °F 76% 30.31 in 10.0 mi NNE 13.8 mph 18.4 mph 0.07 in   Overcast
5:35 PM 41.0 °F 33.9 °F 32.0 °F 70% 30.29 in 10.0 mi NNE 12.7 mph 21.9 mph 0.12 in   Overcast
5:55 PM 41.0 °F 33.9 °F 33.8 °F 76% 30.29 in 10.0 mi North 12.7 mph - 0.12 in   Scattered Clouds
6:15 PM 41.0 °F 33.9 °F 33.8 °F 76% 30.30 in 10.0 mi NNE 12.7 mph - N/A   Mostly Cloudy
6:35 PM 41.0 °F 33.5 °F 32.0 °F 70% 30.29 in 10.0 mi NE 13.8 mph 24.2 mph N/A   Overcast
6:55 PM 41.0 °F 34.3 °F 32.0 °F 70% 30.28 in 10.0 mi NE 11.5 mph 18.4 mph 0.01 in   Mostly Cloudy
7:15 PM 41.0 °F 34.7 °F 33.8 °F 76% 30.28 in 10.0 mi NE 10.4 mph - N/A   Mostly Cloudy
7:35 PM 41.0 °F 33.9 °F 32.0 °F 70% 30.31 in 10.0 mi NNE 12.7 mph - N/A   Overcast
7:55 PM 41.0 °F 34.3 °F 30.2 °F 65% 30.33 in 10.0 mi NNE 11.5 mph - 0.01 in   Overcast
8:15 PM 41.0 °F 36.4 °F 32.0 °F 70% 30.34 in 10.0 mi NNE 6.9 mph - 0.01 in   Overcast
8:35 PM 41.0 °F 35.8 °F 32.0 °F 70% 30.36 in 10.0 mi NNE 8.1 mph - 0.01 in   Overcast
8:55 PM 41.0 °F 34.3 °F 32.0 °F 70% 30.32 in 10.0 mi NNE 11.5 mph 16.1 mph 0.01 in   Mostly Cloudy
9:15 PM 41.0 °F 34.3 °F 32.0 °F 70% 30.34 in 10.0 mi North 11.5 mph 16.1 mph N/A   Clear
9:35 PM 41.0 °F 35.8 °F 32.0 °F 70% 30.36 in 10.0 mi North 8.1 mph - N/A   Clear
9:55 PM 42.8 °F 39.3 °F 30.2 °F 61% 30.38 in 10.0 mi North 5.8 mph - N/A   Partly Cloudy
10:15 PM 41.0 °F 36.4 °F 30.2 °F 65% 30.38 in 10.0 mi North 6.9 mph - N/A   Partly Cloudy
10:35 PM 41.0 °F 34.7 °F 30.2 °F 65% 30.37 in 10.0 mi NNE 10.4 mph - N/A   Clear
10:55 PM 41.0 °F 34.7 °F 30.2 °F 65% 30.38 in 10.0 mi North 10.4 mph - N/A   Clear
11:15 PM 41.0 °F 33.9 °F 30.2 °F 65% 30.37 in 10.0 mi North 12.7 mph - N/A   Clear
11:35 PM 41.0 °F 33.9 °F 28.4 °F 61% 30.36 in 10.0 mi NNE 12.7 mph - N/A   Clear
11:55 PM 41.0 °F 33.9 °F 28.4 °F 61% 30.37 in 10.0 mi NNE 12.7 mph 16.1 mph N/A   Clear